K0CPM-2 Weather Reports


Display with metric or nautical units.
time (UTC)temp
F
wind
direction
speed
MPH
gust
MPH
rain 1hr
in
rain 24hr
in
rain mn
in
humidity
%
barometer
mb
20260510174514 79 226 0.0 1.0 0.00 0.44 0.00 88 1013.5
20260510173019 79 208 0.0 1.0 0.00 0.44 0.00 88 1013.3
20260510171510 78 255 0.0 1.0 0.00 0.44 0.00 88 1013.6
20260510170009 78 288 0.0 3.0 0.00 0.44 0.00 88 1013.7
20260510164508 77 274 0.0 3.0 0.00 0.62 0.00 88 1013.7
20260510163012 78 238 0.0 1.0 0.00 0.62 0.00 88 1013.7
20260510161512 77 215 0.0 2.0 0.00 0.62 0.00 88 1013.9
20260510160006 76 234 0.0 1.0 0.00 0.62 0.00 88 1013.6
20260510154502 76 319 0.0 1.0 0.00 0.80 0.00 88 1013.5
20260510153101 75 200 0.0 2.0 0.00 0.80 0.00 88 1013.6
20260510151608 74 300 0.0 3.0 0.00 0.80 0.00 89 1013.7
20260510144557 74 224 0.0 1.0 0.00 0.83 0.00 89 1014.0
20260510143053 74 217 0.0 1.0 0.00 0.83 0.00 89 1013.7
20260510141550 73 254 0.0 1.0 0.00 0.83 0.00 89 1013.6
20260510140045 72 139 0.0 1.0 0.00 0.83 0.00 89 1013.5
20260510134551 71 326 0.0 1.0 0.00 1.59 0.00 89 1013.7
20260510133038 70 274 0.0 0.0 0.00 1.59 0.00 89 1013.5
20260510131535 69 274 0.0 1.0 0.00 1.59 0.00 89 1013.3
20260510130032 69 224 0.0 1.0 0.00 1.59 0.00 89 1013.1
20260510124529 68 261 0.0 1.0 0.00 1.59 0.00 89 1012.9
20260510123029 68 173 0.0 0.0 0.00 1.59 0.00 89 1012.5
20260510121527 68 173 0.0 1.0 0.00 1.59 0.00 89 1012.4
20260510120024 68 163 0.0 1.0 0.00 1.59 0.00 99 1012.4
20260510114522 68 177 0.0 3.0 0.00 1.59 0.00 99 1012.1
20260510113020 68 168 0.0 4.0 0.00 1.59 0.00 99 1011.6
20260510111518 68 175 0.0 3.0 0.00 1.59 0.00 99 1011.5
20260510110018 67 163 0.0 0.0 0.00 1.59 0.00 99 1011.2
20260510104513 67 179 0.0 0.0 0.00 1.59 0.00 99 1011.0
20260510103011 68 179 0.0 0.0 0.00 1.59 0.00 99 1010.6
20260510101509 0 0.0 0.0 0.00 1.59 0.00 1010.5
20260510100004 0 0.0 0.0 0.00 1.59 0.00 1010.3
20260510094601 0 0.0 0.0 0.00 1.59 0.00 1010.3
20260510093057 0 0.0 0.0 0.00 1.59 0.00 1010.3
20260510091551 0 0.0 0.0 0.00 1.59 0.00 1010.1
20260510090046 0 0.0 0.0 0.00 1.59 0.00 1010.0
20260510084551 64 173 0.0 0.0 0.00 1.59 0.00 89 1010.0
20260510083043 64 173 0.0 0.0 0.00 1.59 0.00 89 1010.1
20260510081538 64 173 0.0 0.0 0.00 1.59 0.00 89 1009.9
20260510080037 64 173 0.0 0.0 0.00 1.59 0.00 89 1009.8
20260510074537 64 173 0.0 0.0 0.00 1.59 0.00 89 1009.8
20260510073040 64 173 0.0 0.0 0.00 1.59 0.00 89 1009.6
20260510071542 64 173 0.0 0.0 0.00 1.59 0.00 89 1009.3
20260510070032 65 173 0.0 0.0 0.00 1.59 0.00 89 1009.6
20260510064532 64 173 0.0 0.0 0.00 1.59 0.00 89 1009.7
20260510063031 65 173 0.0 0.0 0.00 1.59 0.00 89 1009.6
20260510061529 65 173 0.0 0.0 0.00 1.59 0.00 89 1009.6
20260510060034 65 173 0.0 0.0 0.00 1.59 0.00 89 1009.7
20260510054528 65 173 0.0 0.0 0.00 1.59 0.00 89 1009.7
20260510053026 65 173 0.0 0.0 0.00 1.59 0.00 89 1009.5
20260510051536 66 173 0.0 0.0 0.00 1.59 0.00 89 1009.4
20260510050022 66 173 0.0 0.0 0.00 1.59 0.00 89 1009.7
20260510044524 66 173 0.0 0.0 0.00 1.59 1.59 89 1009.6
20260510043024 66 173 0.0 0.0 0.00 1.59 1.59 89 1010.0
20260510041520 66 173 0.0 0.0 0.00 1.59 1.59 89 1009.8
20260510040020 66 349 0.0 3.0 0.00 1.59 1.59 89 1009.7
20260510034519 66 52 0.0 3.0 0.00 1.59 1.59 89 1010.1
20260510033021 66 84 0.0 2.0 0.00 1.59 1.59 89 1010.6
20260510031518 66 74 0.0 0.0 0.00 1.59 1.59 89 1010.5
20260510030017 66 74 0.0 0.0 0.00 1.59 1.59 89 1010.6
20260510024519 66 74 0.0 1.0 0.00 1.59 1.59 89 1010.6
20260510023016 66 104 0.0 1.0 0.00 1.59 1.59 89 1010.2
20260510021515 66 185 0.0 1.0 0.00 1.59 1.59 89 1010.0
20260510020015 67 342 0.0 0.0 0.00 1.59 1.59 89 1009.9
20260510014521 67 335 0.0 1.0 0.00 1.59 1.59 89 1009.7
20260510013014 67 347 0.0 1.0 0.01 1.59 1.59 89 1009.6
20260510011514 67 360 0.0 1.0 0.01 1.59 1.59 89 1009.4
20260510010013 67 1 0.0 1.0 0.01 1.59 1.59 89 1009.4
20260510004512 67 156 0.0 1.0 0.01 1.59 1.59 89 1009.5
20260510003011 67 138 0.0 0.0 0.00 1.58 1.58 89 1009.5
20260510001511 67 181 0.0 1.0 0.02 1.58 1.58 89 1009.6
20260510000010 67 177 0.0 1.0 0.02 1.58 1.58 89 1009.3
20260509234510 68 221 0.0 1.0 0.03 1.58 1.58 89 1009.4
20260509233010 68 221 0.0 1.0 0.03 1.58 1.58 89 1009.4
20260509231509 67 221 0.0 1.0 0.01 1.56 1.56 89 1009.7
20260509230008 68 23 0.0 2.0 0.01 1.56 1.56 89 1009.7
20260509224507 68 169 0.0 2.0 0.01 1.57 1.55 89 1009.4
20260509223007 68 136 0.0 2.0 0.01 1.57 1.55 89 1009.2
20260509221521 68 194 0.0 0.0 0.01 1.57 1.55 89 1008.7
20260509220006 68 194 0.0 1.0 0.01 1.57 1.55 89 1008.7
20260509214505 68 211 0.0 2.0 0.00 1.73 1.54 89 1008.9
20260509213006 68 200 0.0 3.0 0.00 1.73 1.54 89 1008.6
20260509211505 68 334 0.0 3.0 0.00 1.73 1.54 89 1008.6
20260509210004 68 201 0.0 2.0 0.02 1.73 1.54 89 1008.4
20260509204604 69 324 0.0 1.0 0.03 2.27 1.54 89 1008.3
20260509203001 68 166 0.0 1.0 0.05 2.27 1.54 89 1008.7
20260509201501 67 166 0.0 1.0 0.06 2.27 1.54 89 1009.1
20260509200107 67 123 0.0 1.0 0.07 2.25 1.53 89 1009.7
20260509194600 67 5 0.0 1.0 0.06 2.24 1.51 89 1009.7
20260509193126 67 233 0.0 1.0 0.05 2.22 1.49 89 1009.8
20260509191614 66 233 0.0 1.0 0.06 2.21 1.48 89 1010.4
20260509190112 66 233 0.0 1.0 0.05 2.19 1.46 89 1010.4
20260509184558 66 349 0.0 1.0 0.05 2.18 1.45 89 1010.1
20260509183059 66 354 0.0 1.0 0.06 2.17 1.44 89 1009.7
20260509181557 66 165 0.0 1.0 0.09 2.15 1.42 89 1010.0
20260509180056 66 296 0.0 3.0 0.21 2.14 1.41 89 1010.1